Temperature
18 19 20 20 20 20 22 24 25 24 24 24 24 24 24 23 22 20 19 19 19 19 19 17 17 16 15 14 14 13 13 12 12 11 11 11 10 10 10 10 10 9 9 10 10 10 10 11 11
18 19 20 21 20 20 22 24 24 24 24 24 24 24 24 24 22 21 20 19 19 19 19 18 17 16 15 14 14 13 13 12 12 11 11 10 10 10 10 10 10 10 10 10 10 10 10 11 11
18 19 20 21 21 21 23 24 24 24 24 24 24 24 24 23 22 21 20 20 19 18 18 18 17 16 15 14 14 13 13 12 11 11 11 10 10 10 10 10 10 10 10 10 10 10 11 11 12
19 20 21 21 22 23 24 24 24 24 24 23 24 24 23 22 22 21 20 19 18 18 18 18 17 16 15 14 14 13 12 12 11 11 10 10 10 10 10 10 10 11 11 11 11 11 11 11 12
19 21 21 21 23 24 25 24 24 24 24 24 24 24 23 21 21 21 20 19 18 18 17 18 17 16 15 14 13 13 12 12 11 11 10 10 10 10 10 10 11 11 11 11 11 11 11 11 11
20 22 21 21 23 24 25 24 24 24 24 24 24 24 21 20 20 20 20 19 18 17 17 17 16 16 15 14 13 12 12 11 11 10 10 10 10 10 10 10 11 11 11 11 11 11 11 11 11
21 20 21 22 23 24 24 24 24 23 24 24 23 23 21 20 20 20 19 19 18 17 16 17 16 15 14 13 13 12 11 11 10 10 10 10 9 9 10 10 10 10 10 11 11 11 11 11 11
21 21 21 22 23 24 24 23 23 23 23 23 23 23 21 19 19 19 19 18 17 17 16 16 16 15 14 13 12 12 11 11 10 10 10 10 9 9 9 9 10 10 10 10 10 11 11 11 11
20 20 20 22 23 23 24 23 23 23 22 22 22 22 21 20 19 19 18 18 17 16 16 15 15 14 13 12 12 11 11 11 10 10 10 9 9 9 9 9 9 9 10 10 10 10 10 10 10
21 19 21 23 23 22 23 22 22 22 22 22 22 21 20 20 19 18 17 17 17 16 15 15 14 14 13 12 12 11 11 10 10 10 10 9 9 9 9 9 9 9 9 9 10 10 10 10 10
22 20 22 23 22 21 21 21 22 22 20 21 20 20 19 19 18 18 18 17 17 16 15 15 14 13 13 12 11 11 11 10 10 10 9 9 9 9 8 8 8 9 9 9 9 9 9 9 9
21 21 22 22 21 20 20 21 21 21 21 20 19 19 18 18 18 18 18 18 17 16 16 15 14 13 12 12 11 11 11 10 10 10 9 9 9 9 9 8 8 8 8 8 8 8 8 8 8
21 21 22 21 20 20 20 20 20 20 20 19 18 18 18 17 17 17 17 17 17 16 15 15 14 13 13 12 11 11 11 11 10 10 9 9 9 9 9 9 8 8 8 8 8 8 8 8 7
21 21 21 21 21 20 20 20 20 20 19 19 18 17 17 17 16 16 16 16 16 15 15 14 14 13 13 12 12 11 11 10 10 10 9 9 9 9 9 8 8 8 8 7 7 7 7 7 7
20 19 19 21 21 21 19 18 19 20 19 19 18 17 16 16 15 15 16 16 15 15 14 14 14 13 13 12 12 11 11 10 10 10 9 9 9 9 9 8 8 8 8 7 7 7 7 7 7
20 19 18 21 20 19 18 18 19 19 19 19 18 17 16 15 15 15 15 15 15 15 14 14 14 13 12 12 11 11 10 10 10 10 9 9 9 9 9 8 8 8 8 8 7 7 7 7 7
19 19 19 20 20 20 19 19 19 19 19 19 18 17 16 15 14 14 14 14 14 14 14 14 14 13 12 12 11 11 10 10 10 10 9 9 9 8 8 8 8 8 8 7 7 7 7 7 7
19 19 20 20 20 20 19 18 19 19 19 19 18 17 15 14 13 13 14 14 14 14 14 14 14 13 12 12 11 11 10 10 10 10 9 9 9 9 8 8 8 8 8 7 7 7 7 7 6
19 19 18 20 20 19 18 18 19 19 19 18 18 17 15 14 13 13 13 14 14 14 14 13 13 13 12 12 11 11 10 10 10 10 9 9 9 9 8 8 8 8 8 7 7 7 6 6 6
18 18 18 19 19 19 18 18 19 18 18 19 18 16 15 14 13 13 13 13 13 13 13 13 13 12 12 12 11 11 10 10 10 9 9 9 9 9 8 8 8 8 7 7 7 7 6 6 6
18 17 18 18 19 18 17 17 18 18 18 18 18 17 15 14 13 12 12 12 13 13 13 13 13 12 12 12 12 11 10 10 9 9 9 9 9 8 8 8 8 8 7 7 7 6 6 6 6
17 19 19 18 17 17 17 16 17 16 16 16 17 16 15 14 13 12 12 12 13 13 13 12 12 12 12 12 11 11 10 9 9 9 8 8 8 8 8 8 7 7 7 7 7 6 6 5 5
18 18 18 18 17 16 17 16 17 16 15 15 16 16 15 14 13 12 12 12 12 12 12 12 12 12 12 11 11 10 10 9 9 8 8 8 7 7 7 7 7 7 7 6 6 6 6 5 5
18 17 17 16 15 15 17 17 17 16 16 15 15 16 15 14 13 12 12 12 12 12 12 12 11 11 11 11 10 10 9 9 8 8 7 7 7 7 6 6 6 6 6 6 6 5 5 5 5
16 16 15 15 14 15 19 18 18 18 17 16 16 16 15 14 13 12 11 11 11 11 11 11 11 11 10 10 9 9 8 8 8 7 7 7 7 6 6 6 6 6 6 6 5 5 5 4 4
15 16 16 16 17 17 16 17 18 17 18 18 17 16 15 14 13 12 11 11 11 11 11 10 10 10 10 9 9 8 8 7 7 7 6 6 6 6 6 6 5 5 5 5 4 4 4 4 3
16 16 17 16 17 17 17 18 15 17 16 17 17 16 15 14 13 12 11 11 11 10 10 10 10 9 9 9 8 8 7 7 7 6 6 6 6 5 5 5 5 5 4 4 4 3 3 3 2
16 17 16 15 15 15 18 18 16 14 15 15 15 16 15 14 13 12 11 11 10 10 10 10 9 9 9 8 8 7 7 6 6 6 6 5 5 5 4 4 4 4 4 3 3 2 2 2 2
15 16 16 16 17 16 16 17 17 16 15 14 15 16 15 14 13 12 11 10 10 10 9 9 9 8 8 7 7 7 6 6 6 5 5 5 4 4 4 4 3 3 3 3 2 2 1 1 1
16 16 16 15 16 16 15 16 17 16 16 16 16 16 15 14 13 12 11 10 9 9 9 8 8 8 7 7 7 6 6 6 5 5 4 4 4 4 3 3 3 2 2 2 1 1 0 -0 -0
Wind_Speed
11 13 8 3 3 5 5 2 2 3 3 7 6 5 5 6 6 6 6 8 12 15 22 23 22 20 18 16 14 13 12 11 10 10 10 10 10 10 10 10 10 10 10 11 11 11 12 12 12
12 8 5 4 5 6 3 4 3 6 7 5 1 3 2 5 9 10 6 8 12 17 22 21 22 20 19 17 15 14 13 11 10 10 10 10 9 9 9 9 9 9 9 10 10 10 11 11 11
11 8 4 4 6 6 2 5 6 7 4 1 2 1 1 4 8 6 7 9 10 15 21 22 23 21 19 18 16 15 13 12 11 10 9 9 8 8 8 8 8 8 8 8 9 9 9 9 9
6 4 5 6 8 4 1 5 6 2 4 3 3 4 4 7 6 8 9 9 11 12 20 23 24 21 20 18 17 15 13 12 11 10 9 8 8 7 7 7 6 6 6 7 7 7 7 7 7
4 4 6 7 7 1 3 7 5 4 1 3 1 5 4 6 11 11 9 9 10 11 18 23 23 21 20 18 17 15 13 12 11 10 9 8 7 7 6 6 5 4 4 5 5 5 5 5 5
4 4 5 7 6 3 3 5 2 5 3 1 2 4 5 7 10 9 9 7 8 11 16 22 22 21 19 18 17 16 14 12 11 10 9 8 8 7 6 5 4 3 2 2 2 3 3 3 3
5 5 7 7 2 2 2 5 2 5 5 3 3 4 6 7 7 6 8 6 7 11 14 19 20 19 19 18 17 16 14 12 11 10 9 8 8 7 7 6 5 4 3 2 1 0 1 2 2
4 5 8 6 3 1 5 5 2 5 6 5 3 3 5 4 5 5 6 5 6 8 10 16 18 18 17 17 17 16 15 13 12 11 10 9 8 8 7 7 7 6 4 4 4 3 3 4 4
4 4 6 4 3 3 5 2 2 0 4 6 4 1 7 7 6 5 5 4 5 6 8 11 15 17 17 17 16 16 15 14 13 12 11 10 9 9 10 10 9 7 7 6 7 7 7 7 8
3 4 7 6 6 6 6 4 5 5 7 7 3 4 7 6 5 6 7 8 9 8 8 8 10 14 16 15 15 15 14 14 14 12 13 12 11 10 9 10 10 9 9 9 10 10 10 10 12
6 7 7 6 6 6 7 7 6 6 7 4 6 7 5 1 2 4 6 7 9 11 9 7 7 12 13 11 12 12 12 13 14 14 14 14 12 9 7 9 10 11 11 12 12 12 12 14 14
6 8 7 5 5 3 6 7 7 7 5 4 5 5 5 4 3 2 3 3 6 10 10 8 7 7 9 11 9 10 10 10 10 13 12 12 9 7 7 7 9 11 12 13 12 11 13 14 14
8 8 7 4 2 5 7 8 7 8 1 4 3 1 2 4 4 3 2 1 6 8 9 8 8 7 7 7 6 7 8 10 11 12 12 10 8 6 7 8 8 9 9 9 9 9 10 10 11
6 7 8 7 7 6 7 9 6 4 4 4 3 3 5 5 4 4 2 2 5 8 9 7 7 7 7 4 4 5 6 8 9 10 11 11 9 8 7 7 8 9 9 9 8 8 8 7 8
5 8 10 11 8 3 2 8 9 6 6 5 5 6 7 6 6 5 3 3 5 8 8 7 6 6 6 6 5 5 6 7 7 7 10 10 10 9 8 6 5 8 10 10 9 9 8 6 6
8 7 6 5 6 6 3 7 5 8 6 4 5 7 7 7 8 7 6 6 7 9 8 7 5 5 5 4 4 4 4 3 4 4 5 7 9 9 7 4 5 8 8 7 4 4 5 5 6
8 8 9 5 8 7 7 6 5 7 6 6 6 8 8 8 8 8 7 8 8 9 9 8 6 4 5 4 4 3 2 2 1 1 2 3 5 6 6 4 5 7 6 5 4 5 5 6 6
6 7 7 2 7 6 7 8 5 8 7 6 7 9 9 8 8 8 9 9 9 9 9 8 7 6 6 4 3 3 3 2 1 0 2 4 5 6 6 5 6 7 4 4 4 6 6 6 6
8 9 11 8 3 3 8 10 7 8 8 8 8 10 10 9 8 9 9 9 9 9 9 8 7 6 5 4 3 2 1 0 0 1 3 4 5 6 5 4 5 5 5 6 6 5 6 6 5
7 9 11 9 3 2 7 11 7 7 9 8 10 11 11 10 9 8 9 8 9 9 8 8 7 7 6 4 3 2 1 0 0 1 2 3 4 5 5 4 3 4 5 6 6 6 5 5 4
9 10 10 9 2 5 6 8 8 7 6 6 9 12 12 11 10 9 9 9 8 8 8 7 8 7 6 5 3 2 1 1 1 1 1 2 4 4 4 4 4 4 4 5 6 6 7 6 5
9 6 6 6 5 5 7 4 6 10 8 8 9 11 12 11 10 9 9 9 8 7 7 8 7 7 5 4 4 2 2 1 1 1 1 2 3 3 3 4 4 4 4 6 6 6 6 6 6
3 3 4 5 6 7 7 6 5 12 11 12 11 11 12 11 11 10 9 9 8 7 6 6 7 6 5 5 4 4 4 3 3 3 3 4 3 2 3 4 4 4 4 6 7 6 6 5 6
2 2 5 5 4 6 10 10 5 11 14 16 14 12 12 12 11 10 9 9 8 6 5 5 6 6 5 4 4 4 4 4 4 4 4 4 4 3 3 3 4 5 4 6 7 7 8 7 8
4 4 4 5 5 8 4 5 5 8 12 15 17 14 13 12 11 11 10 9 8 7 5 5 6 5 4 4 4 3 3 3 3 3 4 5 4 4 4 3 4 4 6 7 6 7 8 8 9
9 7 5 4 3 1 2 5 1 6 5 11 15 15 13 12 11 11 10 9 9 8 6 5 5 4 4 3 3 3 3 2 2 3 4 4 4 4 4 5 6 7 8 7 6 7 8 8 9
7 8 5 5 7 5 5 5 4 3 4 5 13 14 14 13 12 11 10 9 9 8 6 5 4 4 3 3 2 3 3 3 3 4 4 4 5 5 6 6 7 7 7 7 8 7 8 8 9
4 3 4 4 4 5 7 7 7 8 8 7 10 13 13 12 12 11 10 9 8 7 6 5 4 4 2 2 2 2 3 3 4 5 6 6 6 6 7 8 8 8 8 8 8 8 9 9 9
7 5 5 4 4 3 4 2 3 9 11 10 10 11 13 12 12 11 9 9 8 7 6 5 4 3 2 2 2 3 4 4 5 5 6 6 6 7 8 8 9 9 9 9 9 9 10 10 10
8 9 8 5 5 4 3 3 4 6 8 9 9 9 10 12 11 10 10 9 8 7 5 5 4 3 2 1 2 4 4 5 5 6 7 7 7 8 8 9 9 10 10 9 9 10 10 10 10
Wind_Direction
273 255 244 245 245 239 239 126 87 85 61 59 50 348 354 41 43 91 145 140 126 139 151 162 160 159 157 154 150 146 142 136 128 119 112 106 99 94 89 82 77 72 68 65 63 61 60 59 56
278 249 235 241 244 247 206 136 114 70 58 50 92 269 314 80 91 111 128 127 130 142 151 163 163 162 160 158 155 152 148 143 137 127 119 114 108 101 95 87 80 75 70 67 65 63 61 59 56
271 256 233 224 242 261 105 99 86 88 85 336 274 178 11 58 81 96 130 141 133 142 153 163 164 165 164 162 161 158 154 151 146 138 130 124 118 110 102 95 87 80 74 68 65 62 61 59 56
250 228 243 244 242 230 59 100 77 82 139 164 308 295 121 73 73 109 131 148 140 144 153 159 166 168 168 167 165 163 161 159 155 150 143 136 129 122 113 106 98 89 81 73 66 61 58 56 53
242 238 232 247 259 92 77 63 63 298 230 146 86 311 62 82 98 112 133 153 147 148 151 159 168 170 171 171 169 167 167 166 162 159 154 149 142 135 128 122 114 104 91 80 70 61 56 51 48
246 247 241 237 221 160 136 122 168 268 282 170 153 290 84 96 91 103 126 161 150 143 146 157 170 173 174 175 173 172 173 172 171 169 166 162 158 152 150 146 142 135 120 97 76 61 47 37 32
266 264 269 278 269 140 120 72 357 310 314 353 36 329 95 67 83 111 131 160 138 138 143 152 169 174 177 178 177 177 178 178 179 178 177 175 174 172 172 171 174 178 180 186 201 299 334 339 338
308 291 268 275 292 338 87 82 352 324 320 8 31 311 93 122 116 111 116 128 128 135 144 152 167 174 177 180 180 181 182 183 186 187 184 183 186 191 192 193 196 202 211 225 239 254 266 274 280
292 282 283 298 337 349 78 92 267 263 273 283 253 233 117 127 126 132 133 140 142 147 153 153 165 172 176 178 182 182 186 189 189 189 186 184 194 204 204 204 203 211 224 237 246 252 259 264 264
239 272 284 337 0 357 12 359 328 318 292 288 299 78 110 132 159 180 185 179 171 171 172 163 162 168 172 178 176 182 187 190 192 194 190 193 205 213 206 196 200 215 231 243 251 254 258 260 254
243 256 292 333 15 7 341 320 307 289 283 335 12 16 27 27 217 217 217 196 174 169 167 165 158 160 165 168 168 177 184 186 194 201 196 196 204 204 191 184 197 213 226 236 244 242 242 242 241
270 286 296 323 50 356 301 303 305 293 298 52 41 9 339 318 303 269 240 218 147 147 154 158 150 149 158 161 169 172 178 182 189 203 204 192 191 191 196 206 207 212 217 222 228 224 237 238 239
263 272 289 301 262 246 267 274 271 268 326 68 64 7 333 357 350 349 349 121 122 132 144 154 151 152 153 154 167 174 178 181 191 198 206 199 186 189 202 217 227 231 230 224 224 232 245 248 246
320 323 299 272 249 243 252 263 244 230 127 134 147 83 49 38 24 24 41 100 123 130 136 144 152 151 148 152 163 177 188 186 191 192 198 207 204 201 206 218 227 233 240 245 242 244 251 253 252
299 282 274 246 220 189 240 262 221 159 151 180 151 106 81 60 50 45 57 99 115 120 122 130 143 146 150 160 175 184 191 186 191 194 200 210 214 217 216 220 227 234 240 244 247 254 262 264 263
244 250 256 189 162 138 193 274 137 138 171 171 126 107 95 77 66 57 57 71 91 102 103 102 105 127 140 146 162 178 188 182 179 193 206 217 224 230 231 230 235 243 247 245 241 243 257 261 260
234 243 248 167 178 166 210 265 146 159 178 179 150 124 108 89 76 69 68 74 85 94 97 100 102 106 113 116 117 106 87 82 101 163 222 237 243 246 247 246 250 257 255 249 245 247 245 258 265
293 296 298 238 167 189 234 261 204 180 189 188 150 127 109 94 84 79 75 73 78 88 96 101 99 96 97 91 95 89 74 48 47 14 278 273 268 266 262 257 261 265 260 255 248 250 251 252 259
311 312 305 307 126 189 251 260 234 176 185 187 158 133 120 112 107 100 94 88 84 84 91 96 98 93 91 84 87 93 96 47 285 255 271 274 269 266 260 257 263 261 256 256 254 253 259 263 262
292 282 280 284 141 187 266 267 236 179 192 184 158 141 134 130 120 110 103 96 93 92 93 95 94 90 85 85 88 89 94 84 170 240 257 276 275 266 255 247 250 252 255 261 261 256 260 264 249
258 254 265 284 316 229 254 274 218 170 172 158 150 141 140 142 135 124 109 97 90 87 90 94 90 88 87 88 87 69 51 343 9 321 291 272 270 269 261 255 257 262 256 257 256 250 249 256 251
262 274 269 287 296 274 200 264 195 166 168 174 166 149 146 141 136 130 121 110 101 95 93 95 94 92 87 82 75 67 56 30 357 354 296 287 273 264 270 273 273 271 267 266 263 257 248 247 256
249 22 312 274 264 276 253 248 233 158 182 189 183 165 150 144 141 134 127 123 114 105 100 99 96 90 81 76 68 50 40 13 359 352 343 335 317 290 272 269 277 275 268 268 268 271 264 252 250
111 240 252 252 250 258 234 217 237 183 195 184 182 170 155 148 142 136 132 126 120 118 110 108 103 98 89 78 69 69 47 10 356 349 348 334 321 312 301 287 279 275 269 267 267 264 262 257 256
189 218 237 212 215 239 220 200 258 178 177 177 177 169 158 151 149 148 149 145 140 137 131 121 112 107 90 72 58 57 50 4 344 344 335 324 317 314 311 316 294 283 274 270 265 264 261 258 257
196 220 242 267 249 161 183 225 183 75 107 160 164 161 158 158 158 159 159 151 145 145 143 127 112 104 85 64 42 33 30 11 345 334 318 306 298 295 299 298 286 282 281 278 268 266 261 259 256
198 215 255 306 301 284 244 178 103 86 78 139 157 161 165 164 160 157 156 150 147 148 144 127 116 103 84 56 31 21 4 351 335 319 306 297 292 292 292 290 286 282 281 278 276 270 267 264 260
281 273 187 210 243 259 257 215 186 176 185 185 172 170 166 161 157 155 153 149 145 142 133 122 113 105 92 53 31 359 326 327 321 309 300 296 295 296 297 293 290 288 287 285 283 280 275 273 269
193 232 231 235 260 262 291 342 38 160 173 182 188 173 165 161 159 156 153 148 141 138 142 134 119 103 83 35 6 340 325 322 313 302 297 298 299 301 299 296 294 292 289 287 285 283 284 283 283
196 206 209 221 236 214 247 277 35 91 138 163 177 170 162 158 155 152 148 146 145 149 147 137 130 117 99 30 337 318 312 308 303 299 301 305 305 303 300 297 294 291 290 289 287 288 289 287 288
Height
1526 1529 1532 1535 1537 1536 1532 1524 1521 1524 1525 1528 1530 1531 1530 1531 1536 1545 1543 1541 1541 1541 1542 1543 1545 1546 1548 1549 1551 1552 1553 1554 1555 1556 1556 1556 1556 1556 1556 1556 1556 1556 1555 1555 1555 1555 1554 1554 1554
1526 1531 1534 1535 1536 1540 1531 1521 1523 1524 1527 1530 1531 1531 1530 1531 1534 1538 1540 1541 1541 1541 1541 1543 1544 1546 1548 1549 1551 1552 1553 1555 1556 1556 1557 1557 1557 1557 1557 1557 1557 1556 1556 1556 1556 1555 1555 1555 1555
1527 1531 1534 1532 1533 1533 1527 1521 1522 1525 1528 1530 1530 1530 1531 1533 1535 1537 1539 1540 1541 1541 1541 1543 1544 1546 1548 1549 1551 1552 1554 1555 1556 1556 1557 1557 1558 1558 1558 1557 1557 1557 1557 1556 1556 1556 1556 1555 1555
1530 1533 1532 1530 1528 1522 1520 1520 1523 1525 1528 1530 1530 1529 1530 1532 1534 1537 1538 1539 1540 1540 1541 1542 1544 1546 1547 1549 1551 1552 1553 1555 1556 1557 1557 1558 1558 1558 1558 1558 1558 1558 1557 1557 1557 1557 1556 1556 1556
1531 1531 1531 1530 1524 1517 1517 1521 1525 1526 1526 1528 1529 1529 1531 1533 1533 1535 1537 1539 1540 1540 1541 1542 1544 1545 1547 1549 1550 1552 1553 1555 1556 1557 1558 1558 1558 1558 1558 1558 1558 1558 1558 1558 1558 1557 1557 1557 1556
1531 1528 1531 1531 1521 1517 1518 1522 1525 1526 1526 1527 1529 1529 1532 1533 1533 1535 1536 1538 1540 1540 1540 1541 1543 1544 1546 1548 1550 1552 1553 1555 1556 1557 1558 1558 1558 1559 1559 1558 1558 1558 1558 1558 1558 1558 1557 1557 1557
1531 1528 1528 1523 1520 1518 1519 1522 1525 1526 1526 1527 1528 1530 1533 1533 1533 1534 1535 1537 1539 1539 1539 1540 1542 1543 1545 1547 1549 1551 1553 1554 1555 1556 1557 1558 1559 1559 1559 1559 1558 1558 1558 1558 1558 1558 1558 1557 1557
1530 1528 1525 1522 1521 1520 1520 1523 1526 1528 1528 1528 1529 1530 1531 1533 1533 1534 1534 1536 1537 1538 1538 1538 1540 1542 1544 1546 1548 1550 1552 1554 1555 1556 1557 1557 1558 1558 1559 1558 1558 1558 1558 1558 1558 1558 1557 1557 1557
1530 1532 1530 1522 1521 1521 1520 1524 1526 1527 1528 1528 1529 1529 1530 1531 1531 1532 1532 1533 1535 1536 1537 1537 1539 1541 1543 1545 1547 1549 1551 1553 1554 1555 1556 1557 1557 1558 1558 1558 1558 1558 1558 1557 1557 1557 1557 1556 1556
1530 1533 1527 1520 1520 1521 1522 1524 1526 1527 1527 1527 1527 1528 1528 1528 1529 1530 1530 1531 1532 1533 1535 1537 1538 1539 1542 1544 1546 1548 1549 1551 1552 1554 1555 1555 1556 1557 1557 1557 1557 1557 1557 1556 1556 1556 1555 1555 1555
1527 1527 1523 1521 1522 1523 1525 1526 1526 1526 1527 1527 1526 1526 1527 1527 1528 1528 1529 1530 1530 1531 1533 1535 1538 1539 1541 1543 1544 1546 1548 1549 1551 1552 1553 1554 1555 1556 1556 1556 1556 1556 1555 1555 1554 1554 1554 1553 1552
1525 1524 1522 1522 1523 1525 1526 1526 1525 1525 1526 1525 1525 1525 1525 1526 1526 1526 1527 1528 1529 1529 1531 1533 1536 1538 1540 1541 1543 1545 1546 1548 1549 1551 1552 1553 1553 1554 1554 1554 1554 1554 1553 1553 1552 1552 1551 1551 1550
1524 1523 1522 1522 1523 1524 1525 1524 1524 1523 1523 1523 1524 1524 1524 1524 1523 1523 1524 1525 1527 1528 1529 1532 1534 1536 1538 1540 1542 1544 1545 1546 1548 1549 1550 1551 1551 1552 1552 1552 1552 1552 1552 1551 1551 1550 1549 1549 1548
1523 1522 1521 1520 1521 1521 1522 1521 1522 1520 1521 1522 1523 1523 1523 1522 1521 1521 1521 1523 1525 1526 1528 1530 1532 1534 1536 1538 1540 1542 1544 1545 1546 1547 1548 1549 1549 1549 1550 1549 1549 1549 1549 1549 1548 1547 1547 1546 1545
1523 1523 1520 1515 1516 1518 1521 1520 1516 1517 1519 1521 1522 1522 1522 1521 1520 1520 1520 1521 1523 1525 1527 1529 1531 1533 1535 1536 1538 1540 1542 1543 1544 1545 1546 1546 1547 1547 1547 1547 1547 1546 1546 1545 1545 1544 1543 1542 1541
1521 1522 1522 1511 1513 1516 1523 1523 1512 1515 1518 1519 1521 1521 1522 1521 1521 1520 1520 1521 1523 1524 1526 1527 1530 1532 1534 1535 1537 1539 1540 1541 1542 1543 1543 1544 1544 1544 1544 1543 1543 1543 1542 1542 1541 1540 1538 1537 1535
1520 1523 1517 1513 1511 1513 1518 1518 1515 1514 1516 1518 1519 1521 1522 1522 1521 1521 1520 1521 1522 1524 1525 1526 1529 1531 1532 1534 1536 1537 1538 1539 1540 1540 1540 1540 1541 1540 1540 1540 1539 1539 1538 1537 1536 1535 1534 1532 1530
1520 1517 1512 1511 1510 1512 1515 1515 1512 1512 1514 1515 1518 1520 1522 1522 1522 1522 1521 1522 1523 1524 1525 1526 1528 1530 1531 1533 1534 1535 1536 1537 1537 1537 1537 1537 1537 1537 1536 1535 1535 1534 1533 1532 1531 1530 1529 1527 1525
1516 1518 1519 1512 1509 1511 1514 1512 1508 1508 1510 1513 1515 1518 1521 1523 1523 1523 1523 1523 1524 1525 1526 1527 1528 1530 1531 1532 1533 1534 1534 1535 1535 1534 1534 1534 1533 1533 1532 1531 1531 1530 1529 1528 1527 1526 1524 1522 1521
1517 1521 1519 1512 1507 1510 1511 1509 1503 1504 1507 1509 1512 1516 1520 1523 1524 1524 1524 1524 1525 1526 1527 1528 1529 1530 1531 1532 1532 1533 1533 1533 1533 1533 1532 1531 1530 1529 1529 1528 1527 1526 1525 1524 1523 1522 1519 1518 1517
1518 1520 1517 1514 1509 1508 1512 1511 1502 1502 1505 1508 1511 1514 1518 1521 1523 1524 1524 1525 1525 1526 1528 1529 1530 1530 1531 1532 1532 1532 1532 1532 1532 1531 1530 1529 1528 1527 1526 1525 1524 1522 1521 1520 1519 1517 1515 1513 1512
1518 1510 1510 1512 1517 1516 1512 1520 1503 1502 1505 1507 1509 1512 1516 1520 1522 1523 1524 1525 1526 1527 1528 1529 1530 1531 1531 1531 1531 1531 1531 1531 1530 1529 1528 1527 1526 1525 1523 1522 1521 1519 1518 1516 1514 1513 1511 1509 1507
1511 1511 1511 1512 1516 1519 1510 1515 1502 1500 1505 1506 1507 1510 1514 1518 1520 1522 1523 1524 1526 1527 1528 1529 1530 1530 1531 1531 1530 1530 1530 1529 1528 1527 1526 1525 1524 1522 1521 1519 1517 1516 1514 1512 1510 1508 1506 1504 1502
1509 1512 1513 1514 1519 1525 1505 1509 1501 1497 1495 1499 1503 1507 1511 1515 1518 1521 1522 1524 1525 1527 1528 1529 1529 1530 1530 1530 1529 1528 1528 1527 1526 1524 1523 1522 1521 1519 1517 1515 1514 1511 1509 1507 1505 1503 1501 1498 1496
1512 1518 1524 1527 1529 1519 1491 1496 1492 1481 1482 1489 1496 1503 1508 1512 1516 1518 1521 1522 1524 1525 1527 1528 1528 1528 1528 1528 1527 1526 1525 1524 1523 1522 1520 1518 1517 1515 1514 1512 1509 1507 1504 1502 1499 1497 1494 1492 1489
1510 1512 1520 1521 1514 1502 1500 1498 1487 1480 1480 1485 1492 1499 1505 1510 1513 1516 1519 1521 1522 1524 1525 1526 1527 1527 1526 1526 1525 1524 1523 1522 1520 1519 1517 1515 1513 1511 1509 1507 1504 1502 1499 1496 1493 1490 1487 1484 1481
1504 1508 1502 1509 1506 1506 1496 1486 1490 1483 1484 1486 1490 1496 1501 1506 1510 1514 1516 1518 1520 1521 1523 1524 1524 1524 1524 1523 1522 1521 1520 1519 1517 1515 1514 1512 1509 1507 1505 1502 1499 1496 1493 1490 1486 1483 1480 1477 1474
1500 1498 1504 1511 1515 1514 1493 1485 1488 1489 1487 1487 1489 1493 1498 1503 1507 1511 1514 1516 1518 1519 1520 1521 1522 1522 1521 1520 1519 1518 1517 1515 1514 1512 1509 1507 1505 1502 1499 1496 1493 1489 1486 1483 1479 1476 1472 1469 1466
1500 1500 1498 1500 1498 1508 1505 1492 1478 1480 1481 1484 1487 1490 1495 1499 1503 1507 1511 1514 1515 1517 1518 1518 1519 1518 1518 1517 1516 1515 1513 1512 1510 1508 1505 1503 1500 1497 1494 1490 1486 1483 1479 1475 1472 1468 1465 1461 1457
1489 1492 1495 1503 1499 1496 1504 1498 1478 1477 1478 1481 1485 1489 1492 1496 1501 1504 1508 1511 1512 1514 1515 1515 1515 1515 1515 1514 1513 1511 1510 1508 1505 1503 1500 1498 1494 1491 1487 1483 1479 1475 1471 1468 1464 1460 1456 1452 1448